Погода в Камышине

Хотите узнать прогноз погоды в Камышине? Тогда Вам сюда: Погода в Камышине

Поиск расширенной информации на нашем сайте:

Полезная информация:

Новости сайта



02.01.2020
Опубликован Долгосрочный прогноз погоды по городам России и ближнего зарубежья на январь 2020 года.
Карты: Прогноз на январь и февраль 2020 года, Сравнение прогнозируемой аномалии приземной температуры воздуха на январь 2020 года по разным моделям.




Погода в Камышине - сегодня

Время (UTC), дата Ветер
(°,м/с) 
Видим.   Явления Облачность Т
(°С)
Тd
(°С)
f(%) Тe
(°С)
Pmin
(гПа)
dP
(гПа)
Po
(мм)
O2
(г/м3)
Тmin Tmax R s Состояние
почвы
15 27.03.20 040 (СВ) 10 км    ясно 
+11.9 -1.1 40 +11  1028.2  -0.8  760  294    +15.4       
18 27.03.20 050 (СВ) 20000 м    ясно 
+8.4 -0.7 53 +7  1028.8  0.4  760  297           
21 27.03.20 040 (СВ) 20000 м    ясно 
+5.6 -1.1 62 +4  1029.3  0.3  760  300           
00 28.03.20 050 (СВ) 20000 м    ясно 
+4.3 -1.5 66 +3  1028.6  0.3  760  302           
03 28.03.20 040 (СВ) 20000 м    3/0 верхняя 
[Ci fib]
+3.5 -2.2 66 +1  1027.9  -0.7  759  302  +3.5         
06 28.03.20 050 (СВ) 6{10}  20000 м    8/0 верхняя 
[Ci fib]
+4.5 -1.9 63 +2  1027.6  -0.2  759  301           
09 28.03.20 050 (СВ) 20000 м    5/0 средняя, верхняя 
[Ac cast|Ci fib]
+12.4 +0.5 44 +12  1025.7  -1.4  758  292           
12 28.03.20 070 (В) 10 км    3/0 верхняя 
[Ci fib]
+15.8 -1.6 30 +16  1023.1  -2.3  756  288           
15 28.03.20 090 (В) 10 км    ясно 
+13.4 -2 34 +13  1021.7  -1.6  755  290    +16.3       
18 28.03.20 050 (СВ) 20000 м    ясно 
+9.1 -2.2 45 +10  1021.8  0.1  755  295           
21 28.03.20 100 (В) 20000 м    ясно 
+5.8 -1.9 58 +6  1021.1  -0.8  754  298           
00 29.03.20 050 (СВ) 20000 м    ясно 
+2.8 -1.7 72 +1  1020.4  -0.9  754  301           
03 29.03.20 060 (СВ) 10 км    4/1 300 м верхняя 
[St|Ci fib]
+0.9 -1.7 83 -1  1020  -0.4  753  303  +0.9         
06 29.03.20 040 (СВ) 10 км    3/0 верхняя 
[Ci fib]
+6.3 -2.6 53 +5  1019.3  -0.5  753  297           
09 29.03.20 150 (ЮВ) 8-12{12}  10 км    6/0 верхняя 
[Ci fib]
+16.9 -11.6 13 +16  1015.9  -2.8  751  286           
12 29.03.20 140 (ЮВ) 6-10{12}  10 км    8/0 верхняя 
[Ci fib]
+17.3 -9.1 16 +17  1013.5  -2.4  749  285           
15 29.03.20 140 (ЮВ) 5{12}  10 км    3/0 верхняя 
[Ci fib]
+14.9 -10.9 16 +14  1011.9  -1.6  748  287    +17.7       
18 29.03.20 150 (ЮВ) 20000 м    3/0 верхняя 
[Ci fib]
+10.1 -8.7 26 +9  1012.4  0.2  748  292           
21 29.03.20 160 (Ю) 20000 м    ясно 
+7.5 -8.2 32 +6  1011.6  -0.9  747  294           
00 30.03.20 070 (В) 20000 м    6/0 верхняя 
[Ci fib]
+4.6 -7.7 40 +3  1010.8  -0.9  747  297           
03 30.03.20 070 (В) 10 км    9/0 верхняя 
[Ci fib]
+3.2 -5 55 +2  1010  -0.9  746  298  +3.2         
06 30.03.20 110 (В) 10 км    6/0 верхняя 
[Ci fib]
+8.4 -3.4 43 +7  1009.5  -0.2  746  292  +3.2         
09 30.03.20 140 (ЮВ) 7-11{11}  10 км    ясно 
+17.3 -6.7 19 +17  1007  -2  744  283           
12 30.03.20 150 (ЮВ) 7-12{12}  10 км    ясно 
+17.8 -6.3 19 +18  1005.4  -1.6  743  282           
15 30.03.20 160 (Ю) 4{12}  10 км    1/0 средняя 
[Ac lent]
+15.2 -7.4 20 +15  1005.1  -0.4  743  284    +18.6       
Время (UTC), дата Ветер
(°,м/с) 
Видим.   Явления Облачность Т
(°С)
Тd
(°С)
f(%) Тe
(°С)
Pmin
(гПа)
dP
(гПа)
Po
(мм)
O2
(г/м3)
Тmin Tmax R s Состояние
почвы

Для получения пояснительной информации подведите курсор к названию столбца.

ПОГОДА в Камышине - архив

Всё, что Вы хотите узнать о погоде в Камышине - удобно и подробно!

Выберите нужную дату (начиная с 1 января 2019* года) и нажмите кнопку "Найти".
Будут отображены архивные сводки погоды по пункту Камышин, начиная с указанной даты.


Отображать данные в формате CSV (для использования в таблицах Excel)


Внимание! Наш архив погоды предназначен исключительно для личного некоммерческого использования в познавательных целях. Если Вам необходимы официальные справки о состоянии погоды (для производственных, юридических, коммерческих и т.п. целей), обращайтесь в органы Росгидромета.

*Примечание: данная дата относится к архиву по метеостанциям СССР (Россия, СНГ, Балтия).
Архив по метеостанциям Зарубежной Европы и Азии (кроме Китая) хранится 10 дней, по другим регионам земного шара (Китай, Африка, Америка, Австралия, Океания) - 1 день.

Камышин - район местоположения метеостанции


Название, широта, долгота, высота метеостанции:
Камышин 50.1°ш. 45.4°д. 119 м над ур. моря [Российская Федерация]

Дополнительная информация

В oтличие oт бoльшинства пoгoдных сайтoв мы публикуем пoдрoбную метеoинфoрмацию в детальнoм прoфессиoнальнoм фoрмате.

Характеристики температуры и влажнoсти вoздуха измеряются на высoте 2 м в тени вдали oт зданий и деревьев.
Скoрoсть ветра измеряется на высoте 10 м (на урoвне рoста челoвека скoрoсть ветра ниже в 1.5-2 раза). Если метеoстанция нахoдится в гoрoде или в лесу, тo скoрoсть ветра занижена на 2-4 м/с пo сравнению с oткрытым местoм. Скoрoсть ветра над акватoриями крупных рек и oзёр, а также на вершинах хoлмoв на 2-5 м/с выше, чем в oбычных услoвиях.
Атмoсфернoе давление в разных тoчках местнoсти мoжет значительнo oтличаться oт давления на метеoстанции, в зависимoсти oт услoвий рельефа (при пoдъёме на 10 м давление пoнижается примернo на 1 мм рт.ст.).